{"data":{"norad_id":54670,"epoch":"2026-05-24T23:55:16.525056Z","epoch_age_seconds":76094,"freshness":"FRESH","line1":"1 54670U 22166AE  26144.99671904  .00000073  00000+0  14494-3 0  9995","line2":"2 54670  87.9251 248.6137 0001821 102.7840 257.3497 13.21825684168508","mean_motion":13.21825684,"eccentricity":0.0001821,"inclination_deg":87.9251,"raan_deg":248.6137,"arg_perigee_deg":102.784,"mean_anomaly_deg":257.3497,"bstar":0.00014494,"rev_number":16850,"period_min":108.9402345128,"perigee_km":1176.3786447365,"apogee_km":1179.1305004472,"semimajor_km":7555.8915725918,"source":"CELESTRAK","updated_at":"2026-05-25T13:38:22.635983Z"}}